Location: Seven Kings
(51.5667°N, 0.1000°E)
Time: 03:23:00
(UTC+00:00)

Cosmos 44 Rocket - Pass Details

Date: 29 October 2020
Orbit: 642 x 748 km, 65.1° (Epoch: 24 November)

Event Time Altitude Azimuth Distance (km) Brightness Sun altitude
Rises 18:13:04 0° 185° (S) 2,987 6.7 -15.4°
Reaches altitude 10° 18:15:36 10° 173° (S) 2,096 5.7 -15.8°
Maximum altitude 18:19:36 27° 116° (ESE) 1,298 4.2 -16.4°
Enters shadow 18:19:57 27° 108° (ESE) 1,309 4.2 -16.4°
